| time (UTC) | temp F | wind direction | speed knots | gust knots | rain 1hr in | rain 24hr in | rain mn in | humidity % | barometer mb |
| 20260506200016 | 0 | 0.0 | 0.0 | 0.00 | 0.03 | 0.03 | 1008.8 | ||
| 20260506194513 | 0 | 0.0 | 0.0 | 0.00 | 0.03 | 0.03 | 1008.8 | ||
| 20260506193014 | 35 | 284 | 0.0 | 2.6 | 0.00 | 0.03 | 0.03 | 77 | 1008.7 |
| 20260506191511 | 35 | 294 | 0.0 | 2.6 | 0.00 | 0.03 | 0.03 | 77 | 1008.6 |
| 20260506190008 | 35 | 294 | 1.7 | 3.5 | 0.00 | 0.03 | 0.03 | 77 | 1008.5 |
| 20260506184506 | 35 | 284 | 2.6 | 3.5 | 0.00 | 0.03 | 0.03 | 77 | 1008.5 |
| 20260506183006 | 35 | 247 | 1.7 | 3.5 | 0.00 | 0.03 | 0.03 | 77 | 1008.5 |
| 20260506181506 | 36 | 276 | 2.6 | 4.3 | 0.00 | 0.03 | 0.03 | 76 | 1008.3 |
| 20260506180008 | 36 | 272 | 3.5 | 6.1 | 0.00 | 0.03 | 0.03 | 74 | 1008.3 |
| 20260506174503 | 36 | 261 | 2.6 | 4.3 | 0.00 | 0.03 | 0.03 | 74 | 1008.3 |
| 20260506173003 | 36 | 260 | 3.5 | 7.8 | 0.00 | 0.03 | 0.03 | 72 | 1008.3 |
| 20260506171505 | 36 | 256 | 4.3 | 7.8 | 0.00 | 0.03 | 0.03 | 71 | 1008.3 |
| 20260506170001 | 37 | 241 | 5.2 | 8.7 | 0.00 | 0.03 | 0.03 | 72 | 1008.3 |
| 20260506164600 | 37 | 257 | 3.5 | 7.0 | 0.00 | 0.03 | 0.03 | 71 | 1008.2 |
| 20260506163059 | 37 | 229 | 4.3 | 9.6 | 0.00 | 0.03 | 0.03 | 68 | 1008.2 |
| 20260506161606 | 37 | 252 | 5.2 | 7.8 | 0.00 | 0.03 | 0.03 | 67 | 1008.2 |
| 20260506160058 | 37 | 138 | 1.7 | 5.2 | 0.00 | 0.03 | 0.03 | 76 | 1008.0 |
| 20260506154557 | 37 | 111 | 1.7 | 5.2 | 0.00 | 0.03 | 0.03 | 76 | 1008.0 |
| 20260506153055 | 37 | 128 | 0.9 | 5.2 | 0.00 | 0.03 | 0.03 | 76 | 1008.0 |
| 20260506151606 | 37 | 134 | 1.7 | 6.1 | 0.00 | 0.03 | 0.03 | 75 | 1007.9 |
| 20260506150054 | 37 | 141 | 1.7 | 8.7 | 0.00 | 0.03 | 0.03 | 73 | 1007.9 |
| 20260506144552 | 38 | 192 | 3.5 | 7.8 | 0.00 | 0.03 | 0.03 | 69 | 1007.7 |
| 20260506143055 | 38 | 37 | 2.6 | 7.8 | 0.00 | 0.03 | 0.03 | 63 | 1007.6 |
| 20260506141550 | 38 | 331 | 2.6 | 8.7 | 0.00 | 0.03 | 0.03 | 63 | 1007.6 |
| 20260506140059 | 39 | 321 | 5.2 | 11.3 | 0.00 | 0.03 | 0.03 | 62 | 1007.6 |
| 20260506134546 | 39 | 309 | 3.5 | 7.8 | 0.00 | 0.03 | 0.03 | 62 | 1007.4 |
| 20260506133047 | 39 | 311 | 3.5 | 8.7 | 0.00 | 0.03 | 0.03 | 66 | 1007.5 |
| 20260506131542 | 38 | 17 | 5.2 | 10.4 | 0.00 | 0.03 | 0.03 | 69 | 1007.4 |
| 20260506130048 | 38 | 314 | 5.2 | 12.2 | 0.00 | 0.03 | 0.03 | 69 | 1007.3 |
| 20260506124539 | 39 | 345 | 5.2 | 10.4 | 0.00 | 0.03 | 0.03 | 69 | 1007.2 |
| 20260506123037 | 38 | 347 | 4.3 | 10.4 | 0.00 | 0.03 | 0.03 | 69 | 1007.1 |
| 20260506121536 | 38 | 28 | 4.3 | 10.4 | 0.00 | 0.03 | 0.03 | 70 | 1007.1 |
| 20260506120034 | 38 | 42 | 7.0 | 10.4 | 0.00 | 0.03 | 0.03 | 69 | 1007.0 |
| 20260506114540 | 38 | 323 | 5.2 | 11.3 | 0.00 | 0.03 | 0.03 | 70 | 1006.8 |
| 20260506113030 | 38 | 320 | 2.6 | 8.7 | 0.00 | 0.03 | 0.03 | 72 | 1006.7 |
| 20260506111527 | 38 | 13 | 5.2 | 10.4 | 0.00 | 0.03 | 0.03 | 71 | 1006.6 |
| 20260506110025 | 38 | 355 | 6.1 | 10.4 | 0.00 | 0.03 | 0.03 | 72 | 1006.5 |
| 20260506104522 | 38 | 360 | 5.2 | 10.4 | 0.00 | 0.03 | 0.03 | 74 | 1006.4 |
| 20260506103021 | 38 | 34 | 4.3 | 8.7 | 0.00 | 0.03 | 0.03 | 75 | 1006.3 |
| 20260506101532 | 38 | 360 | 3.5 | 8.7 | 0.00 | 0.03 | 0.03 | 75 | 1006.2 |
| 20260506100015 | 38 | 15 | 4.3 | 8.7 | 0.00 | 0.03 | 0.03 | 75 | 1006.1 |
| 20260506094516 | 38 | 355 | 5.2 | 8.7 | 0.00 | 0.03 | 0.03 | 76 | 1006.1 |
| 20260506093011 | 37 | 17 | 4.3 | 9.6 | 0.00 | 0.03 | 0.03 | 76 | 1006.0 |
| 20260506091509 | 38 | 22 | 4.3 | 9.6 | 0.00 | 0.03 | 0.03 | 75 | 1005.9 |
| 20260506090008 | 37 | 40 | 3.5 | 11.3 | 0.00 | 0.03 | 0.03 | 73 | 1005.8 |
| 20260506084512 | 37 | 36 | 6.1 | 10.4 | 0.00 | 0.03 | 0.03 | 66 | 1005.7 |
| 20260506083002 | 37 | 16 | 4.3 | 8.7 | 0.00 | 0.03 | 0.03 | 68 | 1005.5 |
| 20260506081602 | 37 | 34 | 4.3 | 8.7 | 0.00 | 0.03 | 0.03 | 68 | 1005.4 |
| 20260506073100 | 37 | 27 | 2.6 | 7.8 | 0.01 | 0.03 | 0.03 | 76 | 1005.0 |
| 20260506071607 | 37 | 273 | 4.3 | 8.7 | 0.01 | 0.03 | 0.03 | 76 | 1004.9 |
| 20260506061542 | 35 | 355 | 3.5 | 7.8 | 0.02 | 0.02 | 0.02 | 84 | 1004.4 |
| 20260506044526 | 0 | 0.0 | 0.0 | 0.00 | 0.01 | 0.01 | 1003.9 | ||
| 20260506043024 | 0 | 0.0 | 0.0 | 0.01 | 0.01 | 0.01 | 1003.8 | ||
| 20260506041526 | 0 | 0.0 | 0.0 | 0.01 | 0.01 | 0.01 | 1003.7 | ||
| 20260506040016 | 34 | 251 | 0.0 | 0.9 | 0.01 | 0.01 | 0.01 | 88 | 1003.6 |
| 20260506034514 | 34 | 251 | 0.0 | 1.7 | 0.01 | 0.01 | 0.01 | 88 | 1003.5 |
| 20260506033014 | 33 | 251 | 0.0 | 2.6 | 0.00 | 0.00 | 0.00 | 88 | 1003.4 |
| 20260506031516 | 33 | 259 | 1.7 | 3.5 | 0.00 | 0.00 | 0.00 | 89 | 1003.4 |
| 20260506030011 | 33 | 244 | 2.6 | 3.5 | 0.00 | 0.00 | 0.00 | 89 | 1003.3 |
| 20260506024507 | 33 | 251 | 1.7 | 2.6 | 0.00 | 0.00 | 0.00 | 88 | 1003.1 |
| 20260506023005 | 33 | 281 | 1.7 | 2.6 | 0.00 | 0.00 | 0.00 | 88 | 1003.1 |
| 20260506021506 | 33 | 278 | 1.7 | 2.6 | 0.00 | 0.00 | 0.00 | 89 | 1003.0 |
| 20260506020002 | 33 | 278 | 0.0 | 0.9 | 0.00 | 0.00 | 0.00 | 89 | 1002.9 |
| 20260506014600 | 0 | 0.0 | 0.0 | 0.00 | 0.00 | 0.00 | 1002.9 | ||
| 20260506013054 | 0 | 0.0 | 0.0 | 0.00 | 0.00 | 0.00 | 1002.7 | ||
| 20260506011550 | 0 | 0.0 | 0.0 | 0.00 | 0.00 | 0.00 | 1002.6 | ||
| 20260506010048 | 0 | 0.0 | 0.0 | 0.00 | 0.00 | 0.00 | 1002.6 | ||
| 20260506004544 | 0 | 0.0 | 0.0 | 0.00 | 0.00 | 0.00 | 1002.5 | ||
| 20260506003037 | 0 | 0.0 | 0.0 | 0.00 | 0.00 | 0.00 | 1002.4 | ||
| 20260506001542 | 0 | 0.0 | 0.0 | 0.00 | 0.00 | 0.00 | 1002.4 | ||
| 20260506000036 | 0 | 0.0 | 0.0 | 0.00 | 0.00 | 0.00 | 1002.4 | ||
| 20260505234524 | 0 | 0.0 | 0.0 | 0.00 | 0.00 | 0.00 | 1002.2 | ||
| 20260505233019 | 0 | 0.0 | 0.0 | 0.00 | 0.00 | 0.00 | 1002.2 | ||
| 20260505231515 | 0 | 0.0 | 0.0 | 0.00 | 0.00 | 0.00 | 1002.1 | ||
| 20260505230015 | 0 | 0.0 | 0.0 | 0.00 | 0.00 | 0.00 | 1002.2 | ||
| 20260505224507 | 0 | 0.0 | 0.0 | 0.00 | 0.00 | 0.00 | 1002.1 | ||
| 20260505223008 | 32 | 167 | 2.6 | 2.6 | 0.00 | 0.00 | 0.00 | 92 | 1002.1 |
| 20260505221502 | 0 | 0.0 | 0.0 | 0.00 | 0.00 | 0.00 | 1001.9 | ||
| 20260505220100 | 32 | 76 | 0.9 | 4.3 | 0.00 | 0.00 | 0.00 | 90 | 1001.9 |
| 20260505214606 | 33 | 29 | 3.5 | 10.4 | 0.00 | 0.00 | 0.00 | 89 | 1001.7 |
| 20260505213059 | 34 | 71 | 0.9 | 4.3 | 0.00 | 0.00 | 0.00 | 85 | 1001.6 |
| 20260505211606 | 35 | 92 | 0.9 | 5.2 | 0.00 | 0.00 | 0.00 | 84 | 1001.5 |
| 20260505210104 | 35 | 17 | 2.6 | 7.8 | 0.00 | 0.00 | 0.00 | 83 | 1001.4 |
| 20260505204553 | 36 | 319 | 3.5 | 8.7 | 0.00 | 0.00 | 0.00 | 82 | 1001.4 |
| 20260505203052 | 36 | 9 | 4.3 | 11.3 | 0.00 | 0.00 | 0.00 | 82 | 1001.2 |
| 20260505201554 | 36 | 9 | 5.2 | 9.6 | 0.00 | 0.00 | 0.00 | 81 | 1001.2 |